Meteo Giornale » Osservazioni meteo Stati Uniti (USA) » Olympia
ore: 09:54 - Osservazioni Meteo Olympia
Lat. 46° 58' N Lon. 122° 54' W Alt. 62 metri s.l.m.
17 °C
Coperto
Temp. 24 Ore
11 °C
26 °C
Ovest/Sud-Ovest
13 Km/h
Dew point 12 °C
Umidità 72 %
Visibilità 10 Km
Il sole sorge alle ore 06:31
Il sole tramonta alle ore 19:51
| Data e Ora | Cielo e Fenomeni | T °C | DP °C | Um. % | Pres. hPa | Vis. km | Vento km/h | |
|---|---|---|---|---|---|---|---|---|
| Oggi h: 09:54 | Coperto | 17 | 12 | 72 | 1010 | 10 | O/SO 13 | |
| Oggi h: 08:54 | Coperto | 17 | 13 | 77 | 1010 | 10 | S 13 | |
| Oggi h: 08:35 | Molto Nuvoloso | 17 | 13 | 77 | 1010 | 10 | S 11.1 | |
| Oggi h: 07:54 | Sereno | 16 | 13 | 82 | 1010 | 10 | S 11.1 | |
| Oggi h: 07:20 | Nuvoloso | 14 | 13 | 93 | 1010 | 10 | S 11.1 | |
| Oggi h: 06:54 | Molto Nuvoloso | 14 | 12 | 87 | 1010 | 10 | S 11.1 | |
| Oggi h: 06:41 | Molto Nuvoloso | 14 | 12 | 87 | 1010 | 10 | S 13 | |
| Oggi h: 05:54 | Sereno | 13 | 12 | 93 | 1010 | 10 | S/SO 13 | |
| Oggi h: 04:54 | Sereno | 11 | 10 | 93 | 1010 | 10 | N 0 | |
| Oggi h: 03:54 | Sereno | 11 | 9 | 87 | 1009 | 10 | N 0 | |
| Oggi h: 02:54 | Sereno | 11 | 10 | 93 | 1009 | 10 | N 0 | |
| Oggi h: 01:54 | Sereno | 12 | 9 | 81 | 1009 | 10 | N 0 | |
| Oggi h: 00:54 | Sereno | 12 | 9 | 81 | 1009 | 10 | N 0 | |
| Ieri h: 23:54 | Sereno | 14 | 10 | 76 | 1008 | 10 | N 0 | |
| Ieri h: 22:54 | Sereno | 15 | 10 | 72 | 1008 | 10 | N 0 | |
| Ieri h: 21:54 | Sereno | 18 | 11 | 63 | 1008 | 10 | N 0 | |
| Ieri h: 20:54 | Sereno | 19 | 11 | 59 | 1008 | 10 | N 0 | |
| Ieri h: 19:54 | Sereno | 22 | 11 | 49 | 1007 | 10 | N 0 | |
| Ieri h: 18:54 | Sereno | 25 | 11 | 41 | 1007 | 10 | N 0 | |
| Ieri h: 17:54 | Sereno | 25 | 11 | 41 | 1008 | 10 | NE 7.4 | |
| Ieri h: 16:54 | Sereno | 26 | 11 | 39 | 1008 | 10 | N 11.1 | |
| Ieri h: 15:54 | Sereno | 26 | 11 | 39 | 1008 | 10 | N 0 | |
| Ieri h: 14:54 | Sereno | 24 | 11 | 43 | 1009 | 10 | N 0 | |
| Ieri h: 13:54 | Sereno | 24 | 11 | 43 | 1010 | 10 | N 0 | |
| Ieri h: 12:54 | Sereno | 23 | 11 | 46 | 1011 | 10 | N 0 | |
| Ieri h: 11:54 | Sereno | 21 | 11 | 52 | 1011 | 10 | N 0 | |
| Ieri h: 10:54 | Sereno | 19 | 11 | 59 | 1012 | 10 | N 0 | |



